Location: Unspecified
(44.0704°N, 88.6889°W)
Time: 19:55:35
(UTC+02:00)

Courier 1B - All Passes

Search period start: 16 June 2019 00:00
Search period end: 26 June 2019 00:00
Orbit: 963 x 1209 km, 28.3° (Epoch: 16 June)

Date Brightness Start Highest point End Pass type
(mag) Time Alt. Az. Time Alt. Az. Time Alt. Az.
16 Jun - 04:19:13 10° SSW 04:23:40 16° SSE 04:28:09 10° SE visible
16 Jun - 06:10:50 10° SW 06:16:46 24° S 06:22:45 10° SE visible
16 Jun - 08:04:22 10° WSW 08:10:00 22° S 08:15:35 10° SE visible
16 Jun - 10:00:42 10° SW 10:02:59 11° SSW 10:05:14 10° S visible
17 Jun - 03:26:47 10° S 03:30:05 13° SSE 03:33:25 10° SE daylight
17 Jun - 05:17:23 10° SW 05:23:07 23° S 05:28:54 10° ESE visible
17 Jun - 07:10:27 10° SW 07:16:20 23° S 07:22:12 10° SE visible
17 Jun - 09:05:28 10° SW 09:09:25 15° SSW 09:13:20 10° S night (unlit)
18 Jun - 04:24:07 10° SSW 04:29:27 21° SSE 04:34:54 10° ESE visible
18 Jun - 06:16:42 10° SW 06:22:39 24° S 06:28:39 10° SE visible
18 Jun - 08:10:59 10° SW 08:15:49 18° SSW 08:20:37 10° SSE visible
19 Jun - 03:31:05 10° SSW 03:35:51 18° SSE 03:40:43 10° ESE daylight
19 Jun - 05:23:05 10° SW 05:28:59 24° S 05:34:59 10° SE visible
19 Jun - 07:16:50 10° WSW 07:22:11 20° SSW 07:27:32 10° SSE visible
20 Jun - 02:38:25 10° S 02:42:17 15° SSE 02:46:15 10° SE daylight
20 Jun - 04:29:37 10° SW 04:35:19 23° S 04:41:10 10° SE visible
20 Jun - 06:22:54 10° WSW 06:28:32 22° S 06:34:14 10° SE visible
20 Jun - 08:18:37 10° SW 08:21:34 12° SSW 08:24:32 10° S visible
21 Jun - 01:46:26 10° S 01:48:46 12° SSE 01:51:08 10° SE daylight
21 Jun - 03:36:19 10° SW 03:41:41 22° S 03:47:13 10° ESE daylight
21 Jun - 05:29:08 10° SW 05:34:52 23° S 05:40:43 10° SE visible
21 Jun - 07:23:49 10° SW 07:27:59 15° SSW 07:32:11 10° SSE visible
22 Jun - 02:43:13 10° SSW 02:48:05 19° SSE 02:53:08 10° SE daylight
22 Jun - 04:35:31 10° SW 04:41:12 24° S 04:47:04 10° SE visible
22 Jun - 06:29:32 10° SW 06:34:23 18° SSW 06:39:17 10° SSE visible
23 Jun - 01:50:23 10° SSW 01:54:32 16° SSE 01:58:50 10° SE daylight
23 Jun - 03:42:02 10° SW 03:47:34 23° S 03:53:18 10° SE daylight
23 Jun - 05:35:32 10° SW 05:40:44 20° SSW 05:46:04 10° SSE visible
24 Jun - 00:57:59 10° S 01:01:03 13° SSE 01:04:10 10° SE daylight
24 Jun - 02:48:42 10° SW 02:53:58 22° S 02:59:26 10° SE daylight
24 Jun - 04:41:44 10° SW 04:47:06 22° S 04:52:38 10° SE visible
24 Jun - 06:37:05 10° SW 06:40:10 13° SSW 06:43:17 10° S visible
25 Jun - 01:55:32 10° SSW 02:00:24 20° S 02:05:26 10° SE daylight
25 Jun - 03:48:07 10° SW 03:53:29 22° S 03:59:04 10° SE daylight
25 Jun - 05:42:31 10° SW 05:46:34 15° SSW 05:50:43 10° SSE visible
